User: anonymous   Login
Location: Clatteringshaws Loch
(55.0508°N, 4.2860°W)
Time: 05:54:54
(UTC+01:00)
Language:

ALOS - Orbit

View from above orbital plane
View from above orbital plane
View from above satellite
View from above satellite

Ground track
Ground track

The orbit data is extracted from the following two-line orbital elements,

1 28931U 06002A   16181.87556600  .00000059  00000-0  20481-4 0  9998
2 28931  97.8839 220.0871 0001769  52.8662 307.2706 14.62205753555972
Epoch (UTC): 29 June 2016 21:00:48
Eccentricity: 0.0001769
inclination: 97.8839°
perigee height: 685 km
apogee height: 687 km
right ascension of ascending node: 220.0871°
argument of perigee: 52.8662°
revolutions per day: 14.62205753
mean anomaly at epoch: 307.2706°
orbit number at epoch: 55597

The dashed part of the orbit path shows where the satellite is in the earth's shadow,  

DLR